DANGER1 KLAS-KLSV

Flight info

Callsign DANGER1
Flight time 0h -5m
Altitude VFR/070
Route
Aircraft F35/M-VRDW/C

Departure

Time 2026-05-04 02:50
Airport Harry Reid International Airport (KLAS)

Arrival

Time 2026-05-04 02:45
Airport Nellis Air Force Base (KLSV)
Time Latitude Longitude Altitude Speed Heading
2026-05-04 02:44 36.09830 -115.15963 2121 ft 23 kts 25°
2026-05-04 02:45 36.09954 -115.15865 2120 ft 20 kts 63°
2026-05-04 02:45 36.09984 -115.15758 2121 ft 0 kts 81°
2026-05-04 02:48 36.09984 -115.15755 2121 ft 0 kts 81°
2026-05-04 02:49 36.09982 -115.15732 2121 ft 9 kts 115°
2026-05-04 02:49 36.09916 -115.15676 2120 ft 12 kts 205°
2026-05-04 02:49 36.09600 -115.15858 2118 ft 148 kts 205°
2026-05-04 02:50 36.08079 -115.16729 2296 ft 326 kts 204°
2026-05-04 02:50 36.05614 -115.18187 3888 ft 401 kts 233°
2026-05-04 02:50 36.06599 -115.20761 3551 ft 379 kts 346°
2026-05-04 02:50 36.08878 -115.20382 3956 ft 292 kts 31°
2026-05-04 02:51 36.09968 -115.19713 4274 ft 242 kts 19°
2026-05-04 02:51 36.11911 -115.18795 4706 ft 231 kts 19°
2026-05-04 02:51 36.13487 -115.18068 5193 ft 252 kts 18°
2026-05-04 02:51 36.15182 -115.17328 5664 ft 278 kts 18°
2026-05-04 02:52 36.17164 -115.16349 5504 ft 335 kts 22°
2026-05-04 02:52 36.19424 -115.14993 5366 ft 388 kts 26°
2026-05-04 02:52 36.21961 -115.13378 5395 ft 429 kts 27°
2026-05-04 02:52 36.24327 -115.11115 5363 ft 446 kts 70°
2026-05-04 02:53 36.23412 -115.08173 4711 ft 386 kts 137°
2026-05-04 02:53 36.22953 -115.05817 4177 ft 283 kts 36°
2026-05-04 02:53 36.24605 -115.04278 4229 ft 314 kts 37°
2026-05-04 02:53 36.26465 -115.02547 4547 ft 354 kts 37°
2026-05-04 02:54 36.28369 -115.00499 4682 ft 350 kts 80°
2026-05-04 02:54 36.27146 -114.99256 3223 ft 289 kts 225°
2026-05-04 02:54 36.25417 -115.01692 2277 ft 486 kts 220°
2026-05-04 02:54 36.22485 -115.04834 2624 ft 544 kts 221°
2026-05-04 02:55 36.24606 -115.06716 6105 ft 295 kts 84°
2026-05-04 02:55 36.25927 -115.04216 4700 ft 377 kts 54°
2026-05-04 02:55 36.27466 -115.01466 3831 ft 413 kts 59°
2026-05-04 02:56 36.26741 -114.99255 2611 ft 239 kts 214°
2026-05-04 02:56 36.25957 -115.00956 2490 ft 303 kts 225°